一网星座-0666星 (ONEWEB-0666)

导读 | 星芒AI

ONEWE-0666 是 OneWeb 卫星通信星座计划中的一颗低轨通信卫星,旨在为全球提供高速互联网服务。该卫星由阿丽亚娜集团制造,采用标准化设计以提高部署效率。它运行在约 1200 公里的太阳同步轨道上,与其他 OneWeb 卫星共同构建全球通信网络。该星座特别关注偏远和农村地区的网络覆盖,支持政府、航空和海上通信需求。ONEWE-0666 的发射进一步推动了 OneWeb 恢复并扩展其全球宽带服务的目标。

基本信息
目录编号:
55826
目录名称:
ONEWEB-0666
国际标识:
2023-029AG
轨道中心:
EARTH
卫星名称:
一网星座-0666星
卫星全名:
一网星座-0666星 (ONEWEB-0666)
卫星状态:
在轨 (已飞行966 天)
发射日期:
2023-03-09 UTC
国别 :
英国 (GB)
星等 :
--
轨道信息
数据来源 国际轨道数据 AOE轨道数据
星历时间 2025-10-29T20:08:15+0800
19小时前
查看轨道信息
2025-10-28T17:00:00+0800
1天前
查看轨道信息
半长轴 7559.912km 7559.911km
偏心率 0.0002087 0.0002222
轨道倾角 87.920° 87.916°
近地点辐角 73.485° 91.677°
升交点赤经 320.496° 320.720°
平近点角 286.651° 295.208°
近地点 1180.199km 1180.096km
远地点 1183.355km 1183.456km
周期 109.027分钟 109.027分钟
每日圈数 13.207715 13.207719
详细信息
平衡模式:
三轴稳定
覆盖范围:
全球
运营商:
一网卫星公司
运营商所在国:
英国
制造商(研发单位):
一网卫星公司
制造商所在国:
英国
使用方式:
暂无
卫星简介
OneWeb卫星网络由648颗重约125公斤的微型卫星组成,运行在1200公里的轨道上。 每颗卫星都能够提供至少每秒8千兆位的吞吐量,以使用其高吞吐量的Ku频段有效载荷为家庭和移动平台提供互联网接入。该卫星仍在工作。
2D轨道图
3D轨道图
轨道高度分析图
轨道倾角分析图
轨道综合分析图
查看轨道综合分析图